Location: Boiro
(42.6475°N, 8.8834°W)
Time: 09:59:57
(UTC+02:00)

First-Move - Pass Details

Date: 24 April 2024
Orbit: 538 x 600 km, 97.7° (Epoch: 20 May)

Event Time Altitude Azimuth Distance (km) Brightness Sun altitude
Rises 06:01:42 0° 12° (NNE) 2,870 ? -16.8°
Reaches altitude 10° 06:03:53 10° 13° (NNE) 1,965 ? -16.4°
Maximum altitude 06:08:10 86° 101° (E) 615 ? -15.8°
Enters shadow 06:11:24 17° 192° (SSW) 1,537 ? -15.3°
